Flag for Germany Weather past 2 weeks in Dreieich, Hesse, Germany

Now
69 °F

Scattered clouds.


Feels Like: 69 °F
Forecast: 51 / 69 °F
Wind: 9 mph from Southwest

Location: Frankfurt / M-Flughafen

Current Time: Jul 29, 2015 at 4:14:04 PM

Latest Report: Jul 29, 2015 at 4:00 PM


Visibility: 34 mi

Pressure: 29.79 "Hg

Humidity: 32%

Dew point: 38 °F

Location of DreieichLocation

Historic Weather in Dreieich — Graph

°F

Dreieich temperature yesterday

Maximum temperature yesterday: 71 °F (at 4:00 PM)
Minimum temperature yesterday: 60 °F (at 6:00 AM)
Average temperature yesterday: 65 °F

Past Weeks' High & Low Weather Summary

 TemperatureHumidityPressure
High95 °F (Jul 17, 6:00 PM)98% (Jul 18, 4:00 AM)30.14 "Hg (Jul 18, 4:00 AM)
Low51 °F (Jul 26, 7:00 AM)23% (Jul 17, 4:00 PM)29.63 "Hg (Jul 27, 8:00 AM)
Average72 °F60%29.90 "Hg
* Reported Jul 14 3:00 PM — Jul 29 3:00 PM, Dreieich, Weather by CustomWeather, © 2015

Note: Actual official high and low records may vary slightly from our data, if they occured in-between our weather recording intervals... More about our weather records

Advertising

Dreieich weather history for previous 24 hours

 ConditionsComfort  
Time TempWeatherWind HumidityBarometerVisibility
3:00 PM
Wed, Jul 29
67 °FScattered clouds.9 mph46%29.79 "Hg31 mi
2:00 PM64 °FPartly sunny.8 mph54%29.80 "Hg25 mi
1:00 PM61 °FOvercast.8 mph72%29.81 "Hg22 mi
12:00 PM60 °FLight rain. Overcast.7 mph70%29.82 "Hg19 mi
10:00 AM61 °FOvercast.7 mph67%29.82 "Hg28 mi
9:00 AM60 °FOvercast.5 mph68%29.83 "Hg28 mi
8:00 AM59 °FOvercast.5 mph72%29.84 "Hg25 mi
7:00 AM58 °FOvercast.5 mph74%29.85 "Hg25 mi
6:00 AM58 °FOvercast.5 mph75%29.85 "Hg22 mi
4:00 AM58 °FOvercast.6 mph76%29.84 "Hg25 mi
3:00 AM58 °FLight rain. Overcast.6 mph72%29.85 "Hg25 mi
2:00 AM60 °FOvercast.5 mph64%29.84 "Hg28 mi
1:00 AM61 °FOvercast.6 mph60%29.84 "Hg28 mi
11:00 PM
Tue, Jul 28
64 °FOvercast.7 mph49%29.83 "Hg28 mi
10:00 PM65 °FOvercast.7 mph46%29.82 "Hg28 mi
9:00 PM66 °FOvercast.9 mph44%29.81 "Hg31 mi
8:00 PM67 °FOvercast.9 mph41%29.80 "Hg31 mi
7:00 PM67 °FOvercast.10 mph40%29.79 "Hg31 mi
6:00 PM68 °FOvercast.10 mph38%29.79 "Hg37 mi
5:00 PM69 °FOvercast.12 mph36%29.79 "Hg37 mi
4:00 PM71 °FPartly sunny.12 mph31%29.77 "Hg37 mi
Weather by CustomWeather, © 2015

See weather overviewHow to use our weather pages